Time,TemperatureF,DewpointF,PressureIn,WindDirection,WindDirectionDegrees,WindSpeedMPH,WindSpeedGustMPH,Humidity,HourlyPrecipIn,Conditions,Clouds,dailyrainin,SoftwareType,DateUTC
2013-02-16 00:03:00,46.3,40.8,30.25,North,360,0.0,0.0,81,0.00,,,0.00,WUHU216DAVISVP2,2013-02-16 08:03:00,
2013-02-16 00:08:00,46.2,41.0,30.25,North,360,0.0,0.0,82,0.00,,,0.00,WUHU216DAVISVP2,2013-02-16 08:08:00,
2013-02-16 00:13:00,46.1,40.9,30.25,North,360,0.0,0.0,82,0.00,,,0.00,WUHU216DAVISVP2,2013-02-16 08:13:00,
2013-02-16 00:18:00,45.8,40.6,30.24,North,360,0.0,1.0,82,0.00,,,0.00,WUHU216DAVISVP2,2013-02-16 08:18:00,
2013-02-16 00:23:00,45.7,40.8,30.24,North,360,0.0,1.0,83,0.00,,,0.00,WUHU216DAVISVP2,2013-02-16 08:23:00,
2013-02-16 00:28:00,45.6,40.7,30.24,North,360,0.0,0.0,83,0.00,,,0.00,WUHU216DAVISVP2,2013-02-16 08:28:00,
2013-02-16 00:33:00,45.6,40.7,30.24,North,360,0.0,1.0,83,0.00,,,0.00,WUHU216DAVISVP2,2013-02-16 08:33:00,
2013-02-16 00:38:00,45.6,40.7,30.24,North,360,0.0,1.0,83,0.00,,,0.00,WUHU216DAVISVP2,2013-02-16 08:38:00,
2013-02-16 00:43:00,45.6,40.7,30.24,North,360,0.0,2.0,83,0.00,,,0.00,WUHU216DAVISVP2,2013-02-16 08:43:00,
2013-02-16 00:48:00,45.4,40.5,30.24,North,360,0.0,2.0,83,0.00,,,0.00,WUHU216DAVISVP2,2013-02-16 08:48:00,
2013-02-16 00:54:00,45.3,40.7,30.24,North,360,0.0,2.0,84,0.00,,,0.00,WUHU216DAVISVP2,2013-02-16 08:54:00,
2013-02-16 00:59:00,45.3,40.4,30.24,North,360,0.0,1.0,83,0.00,,,0.00,WUHU216DAVISVP2,2013-02-16 08:59:00,
2013-02-16 01:04:00,45.0,40.5,30.24,North,360,0.0,0.0,84,0.00,,,0.00,WUHU216DAVISVP2,2013-02-16 09:04:00,
2013-02-16 01:09:00,45.3,40.7,30.24,North,360,2.0,2.0,84,0.00,,,0.00,WUHU216DAVISVP2,2013-02-16 09:09:00,
2013-02-16 01:14:00,45.1,40.6,30.24,North,360,1.0,2.0,84,0.00,,,0.00,WUHU216DAVISVP2,2013-02-16 09:14:00,
2013-02-16 01:19:00,44.7,40.5,30.23,North,360,0.0,2.0,85,0.00,,,0.00,WUHU216DAVISVP2,2013-02-16 09:19:00,
2013-02-16 01:24:00,44.1,39.9,30.23,North,360,1.0,2.0,85,0.00,,,0.00,WUHU216DAVISVP2,2013-02-16 09:24:00,
2013-02-16 01:29:00,43.1,39.2,30.23,North,360,2.0,2.0,86,0.00,,,0.00,WUHU216DAVISVP2,2013-02-16 09:29:00,
2013-02-16 01:34:00,42.9,39.6,30.23,North,360,2.0,3.0,88,0.00,,,0.00,WUHU216DAVISVP2,2013-02-16 09:34:00,
2013-02-16 01:39:00,43.8,41.0,30.23,North,360,0.0,3.0,90,0.00,,,0.00,WUHU216DAVISVP2,2013-02-16 09:39:00,
2013-02-16 01:44:00,43.6,40.2,30.23,North,360,0.0,2.0,88,0.00,,,0.00,WUHU216DAVISVP2,2013-02-16 09:44:00,
2013-02-16 01:49:00,43.7,40.6,30.23,North,360,0.0,2.0,89,0.00,,,0.00,WUHU216DAVISVP2,2013-02-16 09:49:00,
2013-02-16 01:54:00,43.6,40.2,30.23,North,360,0.0,2.0,88,0.00,,,0.00,WUHU216DAVISVP2,2013-02-16 09:54:00,
2013-02-16 01:59:00,43.7,40.6,30.23,North,360,0.0,0.0,89,0.00,,,0.00,WUHU216DAVISVP2,2013-02-16 09:59:00,
2013-02-16 02:04:00,43.4,40.1,30.22,North,360,0.0,2.0,88,0.00,,,0.00,WUHU216DAVISVP2,2013-02-16 10:04:00,
2013-02-16 02:09:00,42.9,39.8,30.22,North,360,0.0,2.0,89,0.00,,,0.00,WUHU216DAVISVP2,2013-02-16 10:09:00,
2013-02-16 02:14:00,43.0,39.9,30.22,North,360,0.0,1.0,89,0.00,,,0.00,WUHU216DAVISVP2,2013-02-16 10:14:00,
2013-02-16 02:19:00,42.9,39.8,30.22,North,360,0.0,2.0,89,0.00,,,0.00,WUHU216DAVISVP2,2013-02-16 10:19:00,
2013-02-16 02:24:00,42.8,39.7,30.22,North,360,0.0,2.0,89,0.00,,,0.00,WUHU216DAVISVP2,2013-02-16 10:24:00,
2013-02-16 02:29:00,42.3,39.3,30.22,North,360,0.0,2.0,89,0.00,,,0.00,WUHU216DAVISVP2,2013-02-16 10:29:00,
2013-02-16 02:35:00,42.3,39.5,30.22,North,360,0.0,1.0,90,0.00,,,0.00,WUHU216DAVISVP2,2013-02-16 10:35:00,
2013-02-16 02:40:00,42.4,39.9,30.22,North,360,0.0,1.0,91,0.00,,,0.00,WUHU216DAVISVP2,2013-02-16 10:40:00,
2013-02-16 02:45:00,42.7,40.2,30.22,North,360,0.0,0.0,91,0.00,,,0.00,WUHU216DAVISVP2,2013-02-16 10:45:00,
2013-02-16 02:50:00,42.4,39.6,30.22,North,360,0.0,0.0,90,0.00,,,0.00,WUHU216DAVISVP2,2013-02-16 10:50:00,
2013-02-16 02:55:00,42.5,40.0,30.21,North,360,0.0,0.0,91,0.00,,,0.00,WUHU216DAVISVP2,2013-02-16 10:55:00,
2013-02-16 03:00:00,42.3,39.5,30.21,North,360,0.0,0.0,90,0.00,,,0.00,WUHU216DAVISVP2,2013-02-16 11:00:00,
2013-02-16 03:05:00,41.6,38.8,30.21,North,360,0.0,0.0,90,0.00,,,0.00,WUHU216DAVISVP2,2013-02-16 11:05:00,
2013-02-16 03:10:00,41.2,38.4,30.20,North,360,0.0,0.0,90,0.00,,,0.00,WUHU216DAVISVP2,2013-02-16 11:10:00,
2013-02-16 03:16:00,41.6,39.1,30.20,North,360,0.0,0.0,91,0.00,,,0.00,WUHU216DAVISVP2,2013-02-16 11:16:00,
2013-02-16 03:21:00,41.6,39.1,30.20,North,360,0.0,0.0,91,0.00,,,0.00,WUHU216DAVISVP2,2013-02-16 11:21:00,
2013-02-16 03:26:00,41.3,38.8,30.20,North,360,0.0,0.0,91,0.00,,,0.00,WUHU216DAVISVP2,2013-02-16 11:26:00,
2013-02-16 03:31:00,41.2,38.7,30.20,North,360,0.0,0.0,91,0.00,,,0.00,WUHU216DAVISVP2,2013-02-16 11:31:00,
2013-02-16 03:36:00,41.3,38.8,30.20,North,360,0.0,0.0,91,0.00,,,0.00,WUHU216DAVISVP2,2013-02-16 11:36:00,
2013-02-16 03:41:00,40.9,38.2,30.20,North,360,0.0,0.0,90,0.00,,,0.00,WUHU216DAVISVP2,2013-02-16 11:41:00,
2013-02-16 03:46:00,40.9,38.4,30.20,North,360,0.0,0.0,91,0.00,,,0.00,WUHU216DAVISVP2,2013-02-16 11:46:00,
2013-02-16 03:51:00,41.0,38.5,30.20,North,360,0.0,0.0,91,0.00,,,0.00,WUHU216DAVISVP2,2013-02-16 11:51:00,
2013-02-16 03:56:00,40.9,38.4,30.20,North,360,0.0,0.0,91,0.00,,,0.00,WUHU216DAVISVP2,2013-02-16 11:56:00,
2013-02-16 04:01:00,41.1,38.9,30.20,North,360,0.0,0.0,92,0.00,,,0.00,WUHU216DAVISVP2,2013-02-16 12:01:00,
2013-02-16 04:06:00,41.4,39.2,30.20,North,360,0.0,2.0,92,0.00,,,0.00,WUHU216DAVISVP2,2013-02-16 12:06:00,
2013-02-16 04:11:00,41.1,38.6,30.20,North,360,0.0,2.0,91,0.00,,,0.00,WUHU216DAVISVP2,2013-02-16 12:11:00,
2013-02-16 04:16:00,40.8,38.3,30.20,North,360,0.0,1.0,91,0.00,,,0.00,WUHU216DAVISVP2,2013-02-16 12:16:00,
2013-02-16 04:21:00,40.5,38.3,30.20,North,360,0.0,2.0,92,0.00,,,0.00,WUHU216DAVISVP2,2013-02-16 12:21:00,
2013-02-16 04:26:00,40.4,38.2,30.20,North,360,0.0,2.0,92,0.00,,,0.00,WUHU216DAVISVP2,2013-02-16 12:26:00,
2013-02-16 04:31:00,40.4,38.2,30.20,North,360,0.0,1.0,92,0.00,,,0.00,WUHU216DAVISVP2,2013-02-16 12:31:00,
2013-02-16 04:36:00,40.7,38.5,30.20,North,360,0.0,1.0,92,0.00,,,0.00,WUHU216DAVISVP2,2013-02-16 12:36:00,
2013-02-16 04:41:00,40.5,38.3,30.20,North,360,0.0,0.0,92,0.00,,,0.00,WUHU216DAVISVP2,2013-02-16 12:41:00,
2013-02-16 04:46:00,40.6,38.4,30.20,North,360,0.0,0.0,92,0.00,,,0.00,WUHU216DAVISVP2,2013-02-16 12:46:00,
2013-02-16 04:51:00,40.6,38.4,30.19,North,360,0.0,0.0,92,0.00,,,0.00,WUHU216DAVISVP2,2013-02-16 12:51:00,
2013-02-16 04:57:00,40.3,38.1,30.19,North,360,0.0,0.0,92,0.00,,,0.00,WUHU216DAVISVP2,2013-02-16 12:57:00,
2013-02-16 05:04:00,39.6,37.4,30.19,North,360,0.0,0.0,92,0.00,,,0.00,WUHU216DAVISVP2,2013-02-16 13:04:00,
2013-02-16 05:10:00,39.4,37.2,30.19,North,360,0.0,0.0,92,0.00,,,0.00,WUHU216DAVISVP2,2013-02-16 13:10:00,
2013-02-16 05:15:00,39.1,36.9,30.19,North,360,0.0,1.0,92,0.00,,,0.00,WUHU216DAVISVP2,2013-02-16 13:15:00,
2013-02-16 05:20:00,39.4,37.5,30.20,North,360,0.0,1.0,93,0.00,,,0.00,WUHU216DAVISVP2,2013-02-16 13:20:00,
2013-02-16 05:25:00,39.7,37.8,30.20,North,360,0.0,1.0,93,0.00,,,0.00,WUHU216DAVISVP2,2013-02-16 13:25:00,
2013-02-16 05:30:00,39.9,38.0,30.20,North,360,0.0,0.0,93,0.00,,,0.00,WUHU216DAVISVP2,2013-02-16 13:30:00,
2013-02-16 05:35:00,39.7,37.8,30.20,North,360,0.0,0.0,93,0.00,,,0.00,WUHU216DAVISVP2,2013-02-16 13:35:00,
2013-02-16 05:40:00,39.7,37.8,30.20,North,360,0.0,0.0,93,0.00,,,0.00,WUHU216DAVISVP2,2013-02-16 13:40:00,
2013-02-16 05:45:00,39.7,37.8,30.20,North,360,0.0,0.0,93,0.00,,,0.00,WUHU216DAVISVP2,2013-02-16 13:45:00,
2013-02-16 05:50:00,39.6,37.4,30.20,North,360,0.0,0.0,92,0.00,,,0.00,WUHU216DAVISVP2,2013-02-16 13:50:00,
2013-02-16 05:55:00,39.6,37.4,30.20,North,360,0.0,0.0,92,0.00,,,0.00,WUHU216DAVISVP2,2013-02-16 13:55:00,
2013-02-16 06:00:00,39.0,36.8,30.20,North,360,0.0,0.0,92,0.00,,,0.00,WUHU216DAVISVP2,2013-02-16 14:00:00,
2013-02-16 06:05:00,38.9,36.7,30.20,North,360,0.0,0.0,92,0.00,,,0.00,WUHU216DAVISVP2,2013-02-16 14:05:00,
2013-02-16 06:10:00,39.2,37.3,30.20,North,360,0.0,0.0,93,0.00,,,0.00,WUHU216DAVISVP2,2013-02-16 14:10:00,
2013-02-16 06:15:00,39.2,37.3,30.20,North,360,0.0,0.0,93,0.00,,,0.00,WUHU216DAVISVP2,2013-02-16 14:15:00,
2013-02-16 06:20:00,38.7,36.5,30.20,North,360,0.0,0.0,92,0.00,,,0.00,WUHU216DAVISVP2,2013-02-16 14:20:00,
2013-02-16 06:25:00,38.8,36.9,30.20,North,360,0.0,0.0,93,0.00,,,0.00,WUHU216DAVISVP2,2013-02-16 14:25:00,
2013-02-16 06:30:00,38.4,36.5,30.20,North,360,0.0,0.0,93,0.00,,,0.00,WUHU216DAVISVP2,2013-02-16 14:30:00,
2013-02-16 06:35:00,37.8,35.9,30.20,North,360,0.0,0.0,93,0.00,,,0.00,WUHU216DAVISVP2,2013-02-16 14:35:00,
2013-02-16 06:40:00,37.6,35.7,30.20,North,360,0.0,0.0,93,0.00,,,0.00,WUHU216DAVISVP2,2013-02-16 14:40:00,
2013-02-16 06:45:00,37.6,35.7,30.20,North,360,0.0,0.0,93,0.00,,,0.00,WUHU216DAVISVP2,2013-02-16 14:45:00,
2013-02-16 06:50:00,37.5,35.6,30.20,North,360,0.0,0.0,93,0.00,,,0.00,WUHU216DAVISVP2,2013-02-16 14:50:00,
2013-02-16 06:55:00,37.4,35.8,30.20,North,360,0.0,0.0,94,0.00,,,0.00,WUHU216DAVISVP2,2013-02-16 14:55:00,
2013-02-16 07:00:00,37.2,35.6,30.21,North,360,0.0,1.0,94,0.00,,,0.00,WUHU216DAVISVP2,2013-02-16 15:00:00,
2013-02-16 07:05:00,37.3,35.7,30.21,North,360,1.0,1.0,94,0.00,,,0.00,WUHU216DAVISVP2,2013-02-16 15:05:00,
2013-02-16 07:10:00,37.6,36.0,30.21,North,360,0.0,1.0,94,0.00,,,0.00,WUHU216DAVISVP2,2013-02-16 15:10:00,
2013-02-16 07:15:00,37.9,36.6,30.21,North,360,1.0,1.0,95,0.00,,,0.00,WUHU216DAVISVP2,2013-02-16 15:15:00,
2013-02-16 07:20:00,38.4,37.1,30.22,North,360,0.0,1.0,95,0.00,,,0.00,WUHU216DAVISVP2,2013-02-16 15:20:00,
2013-02-16 07:25:00,38.5,37.1,30.22,North,360,0.0,1.0,95,0.00,,,0.00,WUHU216DAVISVP2,2013-02-16 15:25:00,
2013-02-16 07:30:00,38.6,37.2,30.22,North,360,0.0,0.0,95,0.00,,,0.00,WUHU216DAVISVP2,2013-02-16 15:30:00,
2013-02-16 07:35:00,38.9,37.5,30.22,North,360,1.0,1.0,95,0.00,,,0.00,WUHU216DAVISVP2,2013-02-16 15:35:00,
2013-02-16 07:40:00,39.6,38.2,30.22,North,360,0.0,1.0,95,0.00,,,0.00,WUHU216DAVISVP2,2013-02-16 15:40:00,
2013-02-16 07:45:00,40.3,38.9,30.22,North,360,0.0,1.0,95,0.00,,,0.00,WUHU216DAVISVP2,2013-02-16 15:45:00,
2013-02-16 07:50:00,41.5,40.4,30.22,North,360,0.0,1.0,96,0.00,,,0.00,WUHU216DAVISVP2,2013-02-16 15:50:00,
2013-02-16 07:55:00,42.3,41.2,30.22,NNE,13,2.0,3.0,96,0.00,,,0.00,WUHU216DAVISVP2,2013-02-16 15:55:00,
2013-02-16 08:00:00,43.0,41.6,30.22,NE,49,1.0,3.0,95,0.00,,,0.00,WUHU216DAVISVP2,2013-02-16 16:00:00,
2013-02-16 08:05:00,43.6,42.2,30.22,NE,52,0.0,3.0,95,0.00,,,0.00,WUHU216DAVISVP2,2013-02-16 16:05:00,
2013-02-16 08:10:00,44.3,42.6,30.22,East,81,1.0,3.0,94,0.00,,,0.00,WUHU216DAVISVP2,2013-02-16 16:10:00,
2013-02-16 08:15:00,44.7,42.8,30.22,East,81,0.0,3.0,93,0.00,,,0.00,WUHU216DAVISVP2,2013-02-16 16:15:00,
2013-02-16 08:20:00,45.3,43.4,30.22,East,81,0.0,2.0,93,0.00,,,0.00,WUHU216DAVISVP2,2013-02-16 16:20:00,
2013-02-16 08:25:00,45.9,43.7,30.22,East,81,0.0,2.0,92,0.00,,,0.00,WUHU216DAVISVP2,2013-02-16 16:25:00,
2013-02-16 08:30:00,46.5,44.0,30.22,East,81,0.0,0.0,91,0.00,,,0.00,WUHU216DAVISVP2,2013-02-16 16:30:00,
2013-02-16 08:35:00,47.3,44.5,30.22,East,81,0.0,0.0,90,0.00,,,0.00,WUHU216DAVISVP2,2013-02-16 16:35:00,
2013-02-16 08:40:00,47.7,44.6,30.22,East,81,0.0,0.0,89,0.00,,,0.00,WUHU216DAVISVP2,2013-02-16 16:40:00,
2013-02-16 08:45:00,47.8,44.4,30.22,East,81,0.0,0.0,88,0.00,,,0.00,WUHU216DAVISVP2,2013-02-16 16:45:00,
2013-02-16 08:50:00,48.3,44.9,30.22,East,81,3.0,3.0,88,0.00,,,0.00,WUHU216DAVISVP2,2013-02-16 16:50:00,
2013-02-16 08:55:00,48.7,45.0,30.22,East,81,0.0,3.0,87,0.00,,,0.00,WUHU216DAVISVP2,2013-02-16 16:55:00,
2013-02-16 09:00:00,49.1,45.4,30.22,East,81,2.0,4.0,87,0.00,,,0.00,WUHU216DAVISVP2,2013-02-16 17:00:00,
2013-02-16 09:05:00,49.7,45.7,30.22,East,81,2.0,4.0,86,0.00,,,0.00,WUHU216DAVISVP2,2013-02-16 17:05:00,
2013-02-16 09:10:00,50.4,46.1,30.22,East,81,0.0,2.0,85,0.00,,,0.00,WUHU216DAVISVP2,2013-02-16 17:10:00,
2013-02-16 09:15:00,50.8,46.4,30.22,East,81,1.0,2.0,85,0.00,,,0.00,WUHU216DAVISVP2,2013-02-16 17:15:00,
2013-02-16 09:20:00,51.6,46.9,30.22,East,81,0.0,3.0,84,0.00,,,0.00,WUHU216DAVISVP2,2013-02-16 17:20:00,
2013-02-16 09:26:00,52.3,47.0,30.22,East,81,0.0,3.0,82,0.00,,,0.00,WUHU216DAVISVP2,2013-02-16 17:26:00,
2013-02-16 09:31:00,52.8,47.2,30.22,East,81,2.0,2.0,81,0.00,,,0.00,WUHU216DAVISVP2,2013-02-16 17:31:00,
2013-02-16 09:36:00,53.2,47.2,30.22,East,81,0.0,3.0,80,0.00,,,0.00,WUHU216DAVISVP2,2013-02-16 17:36:00,
2013-02-16 09:41:00,53.7,47.7,30.22,East,81,0.0,3.0,80,0.00,,,0.00,WUHU216DAVISVP2,2013-02-16 17:41:00,
2013-02-16 09:46:00,54.1,47.8,30.22,East,81,0.0,2.0,79,0.00,,,0.00,WUHU216DAVISVP2,2013-02-16 17:46:00,
2013-02-16 09:51:00,54.7,48.4,30.21,East,81,0.0,1.0,79,0.00,,,0.00,WUHU216DAVISVP2,2013-02-16 17:51:00,
2013-02-16 09:56:00,55.5,48.5,30.21,East,80,0.0,1.0,77,0.00,,,0.00,WUHU216DAVISVP2,2013-02-16 17:56:00,
2013-02-16 10:01:00,55.9,48.5,30.21,East,80,0.0,1.0,76,0.00,,,0.00,WUHU216DAVISVP2,2013-02-16 18:01:00,
2013-02-16 10:06:00,56.2,48.1,30.21,East,80,0.0,1.0,74,0.00,,,0.00,WUHU216DAVISVP2,2013-02-16 18:06:00,
2013-02-16 10:11:00,56.1,47.7,30.21,East,80,0.0,1.0,73,0.00,,,0.00,WUHU216DAVISVP2,2013-02-16 18:11:00,
2013-02-16 10:16:00,56.8,48.0,30.21,East,80,0.0,0.0,72,0.00,,,0.00,WUHU216DAVISVP2,2013-02-16 18:16:00,
2013-02-16 10:21:00,56.8,48.0,30.21,East,80,0.0,1.0,72,0.00,,,0.00,WUHU216DAVISVP2,2013-02-16 18:21:00,
2013-02-16 10:26:00,57.2,47.6,30.21,East,80,0.0,1.0,70,0.00,,,0.00,WUHU216DAVISVP2,2013-02-16 18:26:00,
2013-02-16 10:31:00,57.4,47.8,30.21,East,80,0.0,3.0,70,0.00,,,0.00,WUHU216DAVISVP2,2013-02-16 18:31:00,
2013-02-16 10:36:00,57.7,47.3,30.21,East,80,0.0,3.0,68,0.00,,,0.00,WUHU216DAVISVP2,2013-02-16 18:36:00,
2013-02-16 10:41:00,58.2,47.4,30.21,WNW,284,2.0,3.0,67,0.00,,,0.00,WUHU216DAVISVP2,2013-02-16 18:41:00,
2013-02-16 10:46:00,58.2,47.4,30.20,WNW,285,1.0,4.0,67,0.00,,,0.00,WUHU216DAVISVP2,2013-02-16 18:46:00,
2013-02-16 10:51:00,58.4,48.0,30.20,NW,325,1.0,4.0,68,0.00,,,0.00,WUHU216DAVISVP2,2013-02-16 18:51:00,
2013-02-16 10:56:00,58.5,47.7,30.21,WNW,298,0.0,4.0,67,0.00,,,0.00,WUHU216DAVISVP2,2013-02-16 18:56:00,
2013-02-16 11:01:00,58.6,47.4,30.20,NW,320,2.0,4.0,66,0.00,,,0.00,WUHU216DAVISVP2,2013-02-16 19:01:00,
2013-02-16 11:06:00,58.9,47.3,30.20,West,271,0.0,4.0,65,0.00,,,0.00,WUHU216DAVISVP2,2013-02-16 19:06:00,
2013-02-16 11:11:00,59.0,47.8,30.20,West,276,0.0,4.0,66,0.00,,,0.00,WUHU216DAVISVP2,2013-02-16 19:11:00,
2013-02-16 11:16:00,59.5,48.7,30.20,NW,307,4.0,5.0,67,0.00,,,0.00,WUHU216DAVISVP2,2013-02-16 19:16:00,
2013-02-16 11:21:00,59.7,48.5,30.20,North,355,1.0,5.0,66,0.00,,,0.00,WUHU216DAVISVP2,2013-02-16 19:21:00,
2013-02-16 11:26:00,60.6,48.5,30.19,NW,315,3.0,6.0,64,0.00,,,0.00,WUHU216DAVISVP2,2013-02-16 19:26:00,
2013-02-16 11:31:00,60.8,48.3,30.19,WNW,287,3.0,6.0,63,0.00,,,0.00,WUHU216DAVISVP2,2013-02-16 19:31:00,
2013-02-16 11:36:00,61.2,48.7,30.19,NNW,344,2.0,4.0,63,0.00,,,0.00,WUHU216DAVISVP2,2013-02-16 19:36:00,
2013-02-16 11:41:00,62.1,49.5,30.18,NW,312,0.0,6.0,63,0.00,,,0.00,WUHU216DAVISVP2,2013-02-16 19:41:00,
2013-02-16 11:46:00,62.2,48.7,30.18,NW,317,0.0,6.0,61,0.00,,,0.00,WUHU216DAVISVP2,2013-02-16 19:46:00,
2013-02-16 11:51:00,62.4,48.5,30.18,NW,318,0.0,4.0,60,0.00,,,0.00,WUHU216DAVISVP2,2013-02-16 19:51:00,
2013-02-16 11:56:00,62.9,48.0,30.17,NW,312,0.0,5.0,58,0.00,,,0.00,WUHU216DAVISVP2,2013-02-16 19:56:00,
2013-02-16 12:01:00,63.3,49.3,30.17,NW,325,2.0,5.0,60,0.00,,,0.00,WUHU216DAVISVP2,2013-02-16 20:01:00,
2013-02-16 12:06:00,64.3,47.4,30.17,NNW,345,2.0,4.0,54,0.00,,,0.00,WUHU216DAVISVP2,2013-02-16 20:06:00,
2013-02-16 12:11:00,64.6,48.2,30.17,NW,317,3.0,4.0,55,0.00,,,0.00,WUHU216DAVISVP2,2013-02-16 20:11:00,
2013-02-16 12:16:00,65.1,48.6,30.16,North,360,0.0,4.0,55,0.00,,,0.00,WUHU216DAVISVP2,2013-02-16 20:16:00,
2013-02-16 12:21:00,65.5,49.0,30.16,North,360,0.0,4.0,55,0.00,,,0.00,WUHU216DAVISVP2,2013-02-16 20:21:00,
2013-02-16 12:26:00,66.5,47.9,30.15,NNW,347,0.0,3.0,51,0.00,,,0.00,WUHU216DAVISVP2,2013-02-16 20:26:00,
2013-02-16 12:31:00,67.1,47.3,30.15,North,9,3.0,5.0,49,0.00,,,0.00,WUHU216DAVISVP2,2013-02-16 20:31:00,
2013-02-16 12:36:00,67.0,47.2,30.15,North,10,0.0,5.0,49,0.00,,,0.00,WUHU216DAVISVP2,2013-02-16 20:36:00,
2013-02-16 12:41:00,66.9,47.1,30.15,North,360,0.0,4.0,49,0.00,,,0.00,WUHU216DAVISVP2,2013-02-16 20:41:00,
2013-02-16 12:46:00,66.8,47.6,30.14,North,355,2.0,4.0,50,0.00,,,0.00,WUHU216DAVISVP2,2013-02-16 20:46:00,
2013-02-16 12:51:00,66.7,47.5,30.14,North,355,0.0,4.0,50,0.00,,,0.00,WUHU216DAVISVP2,2013-02-16 20:51:00,
2013-02-16 12:56:00,66.5,47.3,30.14,North,355,0.0,5.0,50,0.00,,,0.00,WUHU216DAVISVP2,2013-02-16 20:56:00,
2013-02-16 13:01:00,67.4,48.2,30.14,North,9,0.0,5.0,50,0.00,,,0.00,WUHU216DAVISVP2,2013-02-16 21:01:00,
2013-02-16 13:06:00,67.7,47.3,30.13,NW,311,0.0,4.0,48,0.00,,,0.00,WUHU216DAVISVP2,2013-02-16 21:06:00,
2013-02-16 13:11:00,68.1,47.1,30.13,NW,315,0.0,5.0,47,0.00,,,0.00,WUHU216DAVISVP2,2013-02-16 21:11:00,
2013-02-16 13:16:00,69.1,48.0,30.12,NNW,345,2.0,5.0,47,0.00,,,0.00,WUHU216DAVISVP2,2013-02-16 21:16:00,
2013-02-16 13:21:00,69.0,46.7,30.12,NNW,332,0.0,5.0,45,0.00,,,0.00,WUHU216DAVISVP2,2013-02-16 21:21:00,
2013-02-16 13:26:00,68.8,47.7,30.12,NNW,331,4.0,5.0,47,0.00,,,0.00,WUHU216DAVISVP2,2013-02-16 21:26:00,
2013-02-16 13:31:00,69.4,47.7,30.12,NE,46,3.0,4.0,46,0.00,,,0.00,WUHU216DAVISVP2,2013-02-16 21:31:00,
2013-02-16 13:36:00,69.0,46.1,30.11,North,10,3.0,5.0,44,0.00,,,0.00,WUHU216DAVISVP2,2013-02-16 21:36:00,
2013-02-16 13:41:00,68.8,46.6,30.11,NNE,22,0.0,5.0,45,0.00,,,0.00,WUHU216DAVISVP2,2013-02-16 21:41:00,
2013-02-16 13:46:00,69.4,46.5,30.11,NNW,329,0.0,5.0,44,0.00,,,0.00,WUHU216DAVISVP2,2013-02-16 21:46:00,
2013-02-16 13:51:00,69.0,46.1,30.11,NW,311,0.0,5.0,44,0.00,,,0.00,WUHU216DAVISVP2,2013-02-16 21:51:00,
2013-02-16 13:56:00,68.7,47.1,30.10,NW,322,0.0,5.0,46,0.00,,,0.00,WUHU216DAVISVP2,2013-02-16 21:56:00,
2013-02-16 14:01:00,69.2,46.3,30.10,NNE,24,2.0,5.0,44,0.00,,,0.00,WUHU216DAVISVP2,2013-02-16 22:01:00,
2013-02-16 14:06:00,69.9,45.7,30.10,North,5,3.0,6.0,42,0.00,,,0.00,WUHU216DAVISVP2,2013-02-16 22:06:00,
2013-02-16 14:11:00,70.5,44.2,30.10,NNE,30,0.0,6.0,39,0.00,,,0.00,WUHU216DAVISVP2,2013-02-16 22:11:00,
2013-02-16 14:16:00,70.7,45.7,30.10,North,355,4.0,4.0,41,0.00,,,0.00,WUHU216DAVISVP2,2013-02-16 22:16:00,
2013-02-16 14:21:00,70.9,45.3,30.09,NE,41,1.0,4.0,40,0.00,,,0.00,WUHU216DAVISVP2,2013-02-16 22:21:00,
2013-02-16 14:26:00,70.5,44.9,30.09,NW,325,2.0,5.0,40,0.00,,,0.00,WUHU216DAVISVP2,2013-02-16 22:26:00,
2013-02-16 14:31:00,70.4,45.5,30.09,NNW,336,0.0,5.0,41,0.00,,,0.00,WUHU216DAVISVP2,2013-02-16 22:31:00,
2013-02-16 14:36:00,70.7,45.7,30.09,NNW,339,1.0,5.0,41,0.00,,,0.00,WUHU216DAVISVP2,2013-02-16 22:36:00,
2013-02-16 14:41:00,71.3,43.5,30.09,North,360,0.0,5.0,37,0.00,,,0.00,WUHU216DAVISVP2,2013-02-16 22:41:00,
2013-02-16 14:46:00,71.3,44.9,30.08,NE,42,4.0,6.0,39,0.00,,,0.00,WUHU216DAVISVP2,2013-02-16 22:46:00,
2013-02-16 14:51:00,71.0,43.3,30.08,NNW,327,0.0,6.0,37,0.00,,,0.00,WUHU216DAVISVP2,2013-02-16 22:51:00,
2013-02-16 14:56:00,70.9,42.4,30.08,NNE,21,0.0,5.0,36,0.00,,,0.00,WUHU216DAVISVP2,2013-02-16 22:56:00,
2013-02-16 15:01:00,70.7,43.0,30.08,NNE,21,0.0,4.0,37,0.00,,,0.00,WUHU216DAVISVP2,2013-02-16 23:01:00,
2013-02-16 15:06:00,71.0,41.8,30.08,NE,34,0.0,5.0,35,0.00,,,0.00,WUHU216DAVISVP2,2013-02-16 23:06:00,
2013-02-16 15:11:00,71.0,42.0,30.07,NE,34,0.0,5.0,35,0.00,,,0.00,WUHU216DAVISVP2,2013-02-16 23:11:00,
2013-02-16 15:16:00,71.1,42.0,30.07,NNW,344,0.0,3.0,35,0.00,,,0.00,WUHU216DAVISVP2,2013-02-16 23:16:00,
2013-02-16 15:21:00,71.1,42.8,30.07,NNE,18,0.0,3.0,36,0.00,,,0.00,WUHU216DAVISVP2,2013-02-16 23:21:00,
2013-02-16 15:26:00,70.9,40.3,30.07,NNE,19,0.0,4.0,33,0.00,,,0.00,WUHU216DAVISVP2,2013-02-16 23:26:00,
2013-02-16 15:31:00,71.1,41.3,30.07,NNE,19,0.0,4.0,34,0.00,,,0.00,WUHU216DAVISVP2,2013-02-16 23:31:00,
2013-02-16 15:36:00,71.2,41.4,30.06,NNE,20,0.0,2.0,34,0.00,,,0.00,WUHU216DAVISVP2,2013-02-16 23:36:00,
2013-02-16 15:41:00,71.0,42.0,30.06,NNE,21,0.0,4.0,35,0.00,,,0.00,WUHU216DAVISVP2,2013-02-16 23:41:00,
2013-02-16 15:46:00,70.9,41.9,30.06,NNE,23,0.0,4.0,35,0.00,,,0.00,WUHU216DAVISVP2,2013-02-16 23:46:00,
2013-02-16 15:51:00,70.9,41.9,30.06,NNE,23,0.0,3.0,35,0.00,,,0.00,WUHU216DAVISVP2,2013-02-16 23:51:00,
2013-02-16 15:56:00,70.6,40.9,30.06,NNE,23,0.0,3.0,34,0.00,,,0.00,WUHU216DAVISVP2,2013-02-16 23:56:00,
2013-02-16 16:02:00,70.5,40.8,30.06,NNE,23,0.0,3.0,34,0.00,,,0.00,WUHU216DAVISVP2,2013-02-17 00:02:00,
2013-02-16 16:07:00,70.4,39.9,30.06,NNE,23,0.0,0.0,33,0.00,,,0.00,WUHU216DAVISVP2,2013-02-17 00:07:00,
2013-02-16 16:12:00,70.1,40.2,30.06,NNE,23,0.0,1.0,34,0.00,,,0.00,WUHU216DAVISVP2,2013-02-17 00:12:00,
2013-02-16 16:17:00,70.0,40.9,30.05,NNE,23,0.0,1.0,35,0.00,,,0.00,WUHU216DAVISVP2,2013-02-17 00:17:00,
2013-02-16 16:22:00,69.9,42.3,30.05,NNE,23,0.0,1.0,37,0.00,,,0.00,WUHU216DAVISVP2,2013-02-17 00:22:00,
2013-02-16 16:27:00,69.5,42.6,30.05,NNE,23,0.0,1.0,38,0.00,,,0.00,WUHU216DAVISVP2,2013-02-17 00:27:00,
2013-02-16 16:32:00,69.9,41.6,30.05,NNE,23,0.0,1.0,36,0.00,,,0.00,WUHU216DAVISVP2,2013-02-17 00:32:00,
2013-02-16 16:37:00,70.3,41.9,30.05,NNE,23,0.0,1.0,36,0.00,,,0.00,WUHU216DAVISVP2,2013-02-17 00:37:00,
2013-02-16 16:42:00,70.3,41.9,30.05,NNE,23,0.0,1.0,36,0.00,,,0.00,WUHU216DAVISVP2,2013-02-17 00:42:00,
2013-02-16 16:47:00,70.1,41.0,30.05,NNE,24,0.0,0.0,35,0.00,,,0.00,WUHU216DAVISVP2,2013-02-17 00:47:00,
2013-02-16 16:52:00,69.9,40.8,30.05,NNE,24,0.0,0.0,35,0.00,,,0.00,WUHU216DAVISVP2,2013-02-17 00:52:00,
2013-02-16 16:57:00,69.3,41.0,30.05,NNE,24,0.0,0.0,36,0.00,,,0.00,WUHU216DAVISVP2,2013-02-17 00:57:00,
2013-02-16 17:02:00,68.6,41.1,30.05,NNE,24,0.0,0.0,37,0.00,,,0.00,WUHU216DAVISVP2,2013-02-17 01:02:00,
2013-02-16 17:07:00,68.1,41.4,30.05,NNE,24,0.0,0.0,38,0.00,,,0.00,WUHU216DAVISVP2,2013-02-17 01:07:00,
2013-02-16 17:12:00,67.9,41.2,30.05,NNE,24,0.0,0.0,38,0.00,,,0.00,WUHU216DAVISVP2,2013-02-17 01:12:00,
2013-02-16 17:17:00,67.6,40.9,30.05,NNE,24,0.0,0.0,38,0.00,,,0.00,WUHU216DAVISVP2,2013-02-17 01:17:00,
2013-02-16 17:22:00,67.2,41.9,30.05,NNE,24,0.0,0.0,40,0.00,,,0.00,WUHU216DAVISVP2,2013-02-17 01:22:00,
2013-02-16 17:27:00,66.5,42.0,30.05,NNE,24,0.0,0.0,41,0.00,,,0.00,WUHU216DAVISVP2,2013-02-17 01:27:00,
2013-02-16 17:32:00,66.1,41.6,30.04,NNE,24,0.0,0.0,41,0.00,,,0.00,WUHU216DAVISVP2,2013-02-17 01:32:00,
2013-02-16 17:37:00,65.5,42.3,30.04,NNE,24,0.0,0.0,43,0.00,,,0.00,WUHU216DAVISVP2,2013-02-17 01:37:00,
2013-02-16 17:42:00,64.5,42.0,30.04,NNE,24,0.0,0.0,44,0.00,,,0.00,WUHU216DAVISVP2,2013-02-17 01:42:00,
2013-02-16 17:47:00,63.7,41.9,30.04,NNE,24,0.0,0.0,45,0.00,,,0.00,WUHU216DAVISVP2,2013-02-17 01:47:00,
2013-02-16 17:52:00,63.2,42.0,30.04,NNE,24,0.0,0.0,46,0.00,,,0.00,WUHU216DAVISVP2,2013-02-17 01:52:00,
2013-02-16 17:57:00,62.8,42.2,30.04,NNE,24,0.0,0.0,47,0.00,,,0.00,WUHU216DAVISVP2,2013-02-17 01:57:00,
2013-02-16 18:02:00,62.2,42.2,30.04,NNE,24,0.0,0.0,48,0.00,,,0.00,WUHU216DAVISVP2,2013-02-17 02:02:00,
2013-02-16 18:07:00,61.6,42.8,30.04,NNE,24,0.0,0.0,50,0.00,,,0.00,WUHU216DAVISVP2,2013-02-17 02:07:00,
2013-02-16 18:12:00,61.2,42.4,30.04,NNE,24,0.0,0.0,50,0.00,,,0.00,WUHU216DAVISVP2,2013-02-17 02:12:00,
2013-02-16 18:17:00,60.8,42.1,30.04,NNE,24,0.0,0.0,50,0.00,,,0.00,WUHU216DAVISVP2,2013-02-17 02:17:00,
2013-02-16 18:22:00,60.5,42.3,30.04,NNE,24,0.0,0.0,51,0.00,,,0.00,WUHU216DAVISVP2,2013-02-17 02:22:00,
2013-02-16 18:27:00,60.1,42.4,30.04,NNE,24,0.0,0.0,52,0.00,,,0.00,WUHU216DAVISVP2,2013-02-17 02:27:00,
2013-02-16 18:32:00,59.6,42.4,30.04,NNE,24,0.0,0.0,53,0.00,,,0.00,WUHU216DAVISVP2,2013-02-17 02:32:00,
2013-02-16 18:37:00,59.5,42.3,30.04,NNE,24,0.0,0.0,53,0.00,,,0.00,WUHU216DAVISVP2,2013-02-17 02:37:00,
2013-02-16 18:42:00,59.2,42.6,30.05,NNE,24,0.0,3.0,54,0.00,,,0.00,WUHU216DAVISVP2,2013-02-17 02:42:00,
2013-02-16 18:47:00,58.6,43.0,30.05,WNW,290,0.0,3.0,56,0.00,,,0.00,WUHU216DAVISVP2,2013-02-17 02:47:00,
2013-02-16 18:52:00,58.3,42.3,30.05,WNW,290,0.0,3.0,55,0.00,,,0.00,WUHU216DAVISVP2,2013-02-17 02:52:00,
2013-02-16 18:57:00,58.7,42.2,30.05,WNW,290,0.0,3.0,54,0.00,,,0.00,WUHU216DAVISVP2,2013-02-17 02:57:00,
2013-02-16 19:02:00,58.4,42.4,30.05,WNW,290,2.0,2.0,55,0.00,,,0.00,WUHU216DAVISVP2,2013-02-17 03:02:00,
2013-02-16 19:07:00,58.2,42.2,30.05,WNW,290,1.0,3.0,55,0.00,,,0.00,WUHU216DAVISVP2,2013-02-17 03:07:00,
2013-02-16 19:12:00,58.6,41.6,30.05,WNW,290,3.0,4.0,53,0.00,,,0.00,WUHU216DAVISVP2,2013-02-17 03:12:00,
2013-02-16 19:17:00,58.9,41.8,30.05,WNW,289,0.0,4.0,53,0.00,,,0.00,WUHU216DAVISVP2,2013-02-17 03:17:00,
2013-02-16 19:22:00,58.4,41.9,30.05,WNW,289,1.0,3.0,54,0.00,,,0.00,WUHU216DAVISVP2,2013-02-17 03:22:00,
2013-02-16 19:27:00,58.0,41.4,30.05,WNW,289,1.0,3.0,54,0.00,,,0.00,WUHU216DAVISVP2,2013-02-17 03:27:00,
2013-02-16 19:32:00,57.3,41.8,30.04,WNW,289,2.0,4.0,56,0.00,,,0.00,WUHU216DAVISVP2,2013-02-17 03:32:00,
2013-02-16 19:37:00,57.2,42.2,30.04,WNW,289,0.0,4.0,57,0.00,,,0.00,WUHU216DAVISVP2,2013-02-17 03:37:00,
2013-02-16 19:42:00,57.2,42.2,30.04,WNW,289,0.0,3.0,57,0.00,,,0.00,WUHU216DAVISVP2,2013-02-17 03:42:00,
2013-02-16 19:47:00,56.9,41.9,30.04,WNW,289,3.0,3.0,57,0.00,,,0.00,WUHU216DAVISVP2,2013-02-17 03:47:00,
2013-02-16 19:55:00,56.4,42.2,30.04,WNW,289,0.0,3.0,59,0.00,,,0.00,WUHU216DAVISVP2,2013-02-17 03:55:00,
2013-02-16 20:00:00,55.1,41.6,30.04,WNW,289,0.0,1.0,60,0.00,,,0.00,WUHU216DAVISVP2,2013-02-17 04:00:00,
2013-02-16 20:05:00,54.3,41.7,30.04,WNW,289,0.0,1.0,62,0.00,,,0.00,WUHU216DAVISVP2,2013-02-17 04:05:00,
2013-02-16 20:10:00,53.6,41.3,30.04,WNW,289,0.0,0.0,63,0.00,,,0.00,WUHU216DAVISVP2,2013-02-17 04:10:00,
2013-02-16 20:15:00,53.0,41.7,30.04,WNW,289,0.0,0.0,65,0.00,,,0.00,WUHU216DAVISVP2,2013-02-17 04:15:00,
2013-02-16 20:20:00,52.4,41.5,30.04,WNW,289,0.0,0.0,66,0.00,,,0.00,WUHU216DAVISVP2,2013-02-17 04:20:00,
2013-02-16 20:25:00,52.6,41.7,30.04,WNW,289,0.0,0.0,66,0.00,,,0.00,WUHU216DAVISVP2,2013-02-17 04:25:00,
2013-02-16 20:30:00,52.6,42.1,30.04,WNW,289,0.0,0.0,67,0.00,,,0.00,WUHU216DAVISVP2,2013-02-17 04:30:00,
2013-02-16 20:35:00,52.0,41.9,30.04,WNW,289,0.0,2.0,68,0.00,,,0.00,WUHU216DAVISVP2,2013-02-17 04:35:00,
2013-02-16 20:40:00,51.5,41.8,30.04,WNW,289,1.0,2.0,69,0.00,,,0.00,WUHU216DAVISVP2,2013-02-17 04:40:00,
2013-02-16 20:45:00,51.3,42.0,30.04,WNW,289,0.0,3.0,70,0.00,,,0.00,WUHU216DAVISVP2,2013-02-17 04:45:00,
2013-02-16 20:50:00,51.7,42.7,30.04,WNW,289,1.0,3.0,71,0.00,,,0.00,WUHU216DAVISVP2,2013-02-17 04:50:00,
2013-02-16 20:55:00,51.9,42.5,30.04,WNW,289,2.0,2.0,70,0.00,,,0.00,WUHU216DAVISVP2,2013-02-17 04:55:00,
2013-02-16 21:00:00,51.5,42.5,30.04,WNW,289,1.0,2.0,71,0.00,,,0.00,WUHU216DAVISVP2,2013-02-17 05:00:00,
2013-02-16 21:05:00,51.4,42.8,30.04,WNW,289,2.0,3.0,72,0.00,,,0.00,WUHU216DAVISVP2,2013-02-17 05:05:00,
2013-02-16 21:11:00,51.7,43.4,30.04,NW,319,2.0,3.0,73,0.00,,,0.00,WUHU216DAVISVP2,2013-02-17 05:11:00,
2013-02-16 21:16:00,51.9,44.0,30.04,NW,325,2.0,3.0,74,0.00,,,0.00,WUHU216DAVISVP2,2013-02-17 05:16:00,
2013-02-16 21:21:00,51.7,44.4,30.04,NNW,334,2.0,4.0,76,0.00,,,0.00,WUHU216DAVISVP2,2013-02-17 05:21:00,
2013-02-16 21:26:00,51.7,44.4,30.04,NNW,334,2.0,4.0,76,0.00,,,0.00,WUHU216DAVISVP2,2013-02-17 05:26:00,
2013-02-16 21:31:00,51.5,44.6,30.04,NNW,334,0.0,4.0,77,0.00,,,0.00,WUHU216DAVISVP2,2013-02-17 05:31:00,
2013-02-16 21:36:00,51.0,44.4,30.04,NNW,334,0.0,4.0,78,0.00,,,0.00,WUHU216DAVISVP2,2013-02-17 05:36:00,
2013-02-16 21:41:00,50.2,43.7,30.04,NNW,334,0.0,2.0,78,0.00,,,0.00,WUHU216DAVISVP2,2013-02-17 05:41:00,
2013-02-16 21:46:00,49.7,43.8,30.04,NNW,334,0.0,1.0,80,0.00,,,0.00,WUHU216DAVISVP2,2013-02-17 05:46:00,
2013-02-16 21:51:00,50.0,44.7,30.04,NNW,334,0.0,1.0,82,0.00,,,0.00,WUHU216DAVISVP2,2013-02-17 05:51:00,
2013-02-16 21:56:00,49.5,43.9,30.04,NNW,334,0.0,0.0,81,0.00,,,0.00,WUHU216DAVISVP2,2013-02-17 05:56:00,
2013-02-16 22:01:00,49.0,43.4,30.04,NNW,334,0.0,0.0,81,0.00,,,0.00,WUHU216DAVISVP2,2013-02-17 06:01:00,
2013-02-16 22:06:00,49.0,44.1,30.04,NNW,334,0.0,0.0,83,0.00,,,0.00,WUHU216DAVISVP2,2013-02-17 06:06:00,
2013-02-16 22:11:00,49.3,44.7,30.04,NNW,334,0.0,1.0,84,0.00,,,0.00,WUHU216DAVISVP2,2013-02-17 06:11:00,
2013-02-16 22:16:00,49.0,44.1,30.04,NNW,334,0.0,1.0,83,0.00,,,0.00,WUHU216DAVISVP2,2013-02-17 06:16:00,
2013-02-16 22:21:00,48.8,44.2,30.04,NNW,334,0.0,0.0,84,0.00,,,0.00,WUHU216DAVISVP2,2013-02-17 06:21:00,
2013-02-16 22:26:00,48.5,43.6,30.04,NNW,334,0.0,0.0,83,0.00,,,0.00,WUHU216DAVISVP2,2013-02-17 06:26:00,
2013-02-16 22:31:00,48.5,43.9,30.04,NNW,334,0.0,0.0,84,0.00,,,0.00,WUHU216DAVISVP2,2013-02-17 06:31:00,
2013-02-16 22:36:00,48.2,43.6,30.04,NNW,334,0.0,0.0,84,0.00,,,0.00,WUHU216DAVISVP2,2013-02-17 06:36:00,
2013-02-16 22:41:00,48.2,43.6,30.03,NNW,334,0.0,0.0,84,0.00,,,0.00,WUHU216DAVISVP2,2013-02-17 06:41:00,
2013-02-16 22:46:00,47.6,42.7,30.03,NNW,334,0.0,0.0,83,0.00,,,0.00,WUHU216DAVISVP2,2013-02-17 06:46:00,
2013-02-16 22:51:00,47.3,42.7,30.03,NNW,334,0.0,0.0,84,0.00,,,0.00,WUHU216DAVISVP2,2013-02-17 06:51:00,
2013-02-16 22:56:00,47.0,42.4,30.03,NNW,334,0.0,0.0,84,0.00,,,0.00,WUHU216DAVISVP2,2013-02-17 06:56:00,
2013-02-16 23:01:00,46.5,41.9,30.03,NNW,334,0.0,0.0,84,0.00,,,0.00,WUHU216DAVISVP2,2013-02-17 07:01:00,
2013-02-16 23:06:00,46.8,42.8,30.03,NNW,334,0.0,0.0,86,0.00,,,0.00,WUHU216DAVISVP2,2013-02-17 07:06:00,
2013-02-16 23:11:00,46.9,42.9,30.03,NNW,334,0.0,0.0,86,0.00,,,0.00,WUHU216DAVISVP2,2013-02-17 07:11:00,
2013-02-16 23:16:00,46.9,42.9,30.03,NNW,334,0.0,0.0,86,0.00,,,0.00,WUHU216DAVISVP2,2013-02-17 07:16:00,
2013-02-16 23:21:00,46.9,42.9,30.03,NNW,334,0.0,1.0,86,0.00,,,0.00,WUHU216DAVISVP2,2013-02-17 07:21:00,
2013-02-16 23:26:00,46.7,42.7,30.03,NNW,334,0.0,1.0,86,0.00,,,0.00,WUHU216DAVISVP2,2013-02-17 07:26:00,
2013-02-16 23:31:00,46.7,42.7,30.03,NNW,334,0.0,3.0,86,0.00,,,0.00,WUHU216DAVISVP2,2013-02-17 07:31:00,
2013-02-16 23:36:00,46.7,42.7,30.03,NNW,334,0.0,3.0,86,0.00,,,0.00,WUHU216DAVISVP2,2013-02-17 07:36:00,
2013-02-16 23:41:00,46.6,42.6,30.03,NNW,334,0.0,2.0,86,0.00,,,0.00,WUHU216DAVISVP2,2013-02-17 07:41:00,
2013-02-16 23:46:00,46.6,42.6,30.03,NNW,334,0.0,2.0,86,0.00,,,0.00,WUHU216DAVISVP2,2013-02-17 07:46:00,
2013-02-16 23:51:00,46.7,43.0,30.03,NNW,334,0.0,1.0,87,0.00,,,0.00,WUHU216DAVISVP2,2013-02-17 07:51:00,
2013-02-16 23:57:00,46.8,43.1,30.03,NNW,334,0.0,0.0,87,0.00,,,0.00,WUHU216DAVISVP2,2013-02-17 07:57:00,